TimeCST,TemperatureF,Dew PointF,Humidity,Sea Level PressureIn,VisibilityMPH,Wind Direction,Wind SpeedMPH,Gust SpeedMPH,PrecipitationIn,Events,Conditions,WindDirDegrees,DateUTC
12:15 AM,3.2,-13.7,45,30.21,10.0,NW,21.9,39.1,N/A,,Clear,320,2014-01-27 06:15:00
12:35 AM,2.7,-13.9,46,30.21,10.0,NW,26.5,34.5,N/A,,Clear,310,2014-01-27 06:35:00
12:55 AM,2.3,-12.3,51,30.22,10.0,NW,17.3,27.6,N/A,,Clear,310,2014-01-27 06:55:00
1:15 AM,2.1,-13.0,49,30.23,10.0,NW,24.2,32.2,N/A,,Clear,310,2014-01-27 07:15:00
1:35 AM,1.8,-12.6,51,30.23,10.0,NW,20.7,28.8,N/A,,Clear,310,2014-01-27 07:35:00
1:55 AM,1.4,-12.3,53,30.23,10.0,NW,16.1,28.8,N/A,,Clear,310,2014-01-27 07:55:00
2:15 AM,0.9,-14.4,49,30.25,10.0,NW,18.4,26.5,N/A,,Clear,310,2014-01-27 08:15:00
2:35 AM,0.5,-14.4,50,30.26,10.0,NW,16.1,29.9,N/A,,Clear,310,2014-01-27 08:35:00
2:55 AM,0.5,-13.5,52,30.28,10.0,NW,15.0,23.0,N/A,,Clear,320,2014-01-27 08:55:00
3:15 AM,0.5,-13.2,53,30.27,10.0,NW,17.3,26.5,N/A,,Clear,320,2014-01-27 09:15:00
3:35 AM,0.5,-12.5,55,30.28,10.0,NW,13.8,23.0,N/A,,Clear,310,2014-01-27 09:35:00
3:55 AM,0.1,-11.2,59,30.28,10.0,WNW,12.7,18.4,N/A,,Clear,300,2014-01-27 09:55:00
4:15 AM,-0.0,-10.5,61,30.28,10.0,WNW,13.8,-,N/A,,Clear,300,2014-01-27 10:15:00
4:35 AM,0.1,-10.1,62,30.30,10.0,WNW,10.4,18.4,N/A,,Scattered Clouds,300,2014-01-27 10:35:00
4:55 AM,-0.0,-9.8,64,30.30,10.0,NW,11.5,19.6,N/A,,Scattered Clouds,310,2014-01-27 10:55:00
5:15 AM,-0.2,-11.6,59,30.31,10.0,NW,19.6,26.5,N/A,,Clear,310,2014-01-27 11:15:00
5:35 AM,-0.4,-11.2,60,30.31,10.0,NW,15.0,20.7,N/A,,Clear,310,2014-01-27 11:35:00
5:55 AM,-0.8,-10.5,63,30.32,10.0,NW,16.1,20.7,N/A,,Clear,320,2014-01-27 11:55:00
6:15 AM,-0.9,-9.4,67,30.33,10.0,NW,12.7,-,N/A,,Scattered Clouds,320,2014-01-27 12:15:00
6:35 AM,-1.3,-10.3,66,30.34,10.0,NW,11.5,-,N/A,,Mostly Cloudy,320,2014-01-27 12:35:00
6:55 AM,-1.5,-9.9,67,30.35,10.0,NW,15.0,-,N/A,,Overcast,320,2014-01-27 12:55:00
7:15 AM,-2.2,-13.2,60,30.36,10.0,NW,13.8,18.4,N/A,,Scattered Clouds,310,2014-01-27 13:15:00
7:35 AM,-2.4,-14.1,58,30.36,10.0,NW,13.8,18.4,N/A,,Clear,320,2014-01-27 13:35:00
7:55 AM,-2.2,-13.5,59,30.38,10.0,NW,9.2,18.4,N/A,,Clear,310,2014-01-27 13:55:00
8:15 AM,-1.5,-13.9,56,30.39,10.0,WNW,13.8,20.7,N/A,,Clear,300,2014-01-27 14:15:00
8:35 AM,-1.1,-14.1,54,30.40,10.0,WNW,10.4,18.4,N/A,,Clear,300,2014-01-27 14:35:00
8:55 AM,-0.6,-13.4,55,30.40,10.0,NW,15.0,21.9,N/A,,Clear,310,2014-01-27 14:55:00
9:15 AM,0.1,-13.2,54,30.40,10.0,NW,16.1,19.6,N/A,,Clear,310,2014-01-27 15:15:00
9:35 AM,0.9,-12.1,55,30.40,10.0,WNW,17.3,25.3,N/A,,Scattered Clouds,300,2014-01-27 15:35:00
9:55 AM,0.7,-13.0,53,30.41,10.0,WNW,17.3,24.2,N/A,,Scattered Clouds,300,2014-01-27 15:55:00
10:15 AM,1.4,-15.0,46,30.41,10.0,NW,18.4,27.6,N/A,,Scattered Clouds,310,2014-01-27 16:15:00
10:35 AM,1.6,-15.9,44,30.42,10.0,NNW,16.1,25.3,N/A,,Clear,330,2014-01-27 16:35:00
10:55 AM,2.7,-14.8,44,30.42,10.0,NNW,19.6,-,N/A,,Clear,340,2014-01-27 16:55:00
11:15 AM,3.7,-14.4,43,30.42,10.0,NW,15.0,20.7,N/A,,Clear,310,2014-01-27 17:15:00
11:35 AM,3.9,-14.4,42,30.42,10.0,NW,19.6,25.3,N/A,,Clear,310,2014-01-27 17:35:00
11:55 AM,4.3,-14.3,42,30.42,10.0,NNW,15.0,20.7,N/A,,Clear,330,2014-01-27 17:55:00
12:15 PM,4.3,-15.3,40,30.42,10.0,NW,12.7,21.9,N/A,,Clear,310,2014-01-27 18:15:00
12:35 PM,4.3,-15.3,40,30.42,10.0,NW,15.0,-,N/A,,Clear,320,2014-01-27 18:35:00
12:55 PM,4.6,-15.2,40,30.42,10.0,NNW,12.7,21.9,N/A,,Clear,330,2014-01-27 18:55:00
1:15 PM,5.7,-14.6,39,30.41,10.0,NW,16.1,20.7,N/A,,Clear,310,2014-01-27 19:15:00
1:35 PM,5.9,-14.4,39,30.40,10.0,NNW,16.1,-,N/A,,Clear,330,2014-01-27 19:35:00
1:55 PM,6.3,-14.3,39,30.40,10.0,WNW,10.4,16.1,N/A,,Clear,300,2014-01-27 19:55:00
2:15 PM,6.8,-13.7,39,30.40,10.0,WNW,11.5,17.3,N/A,,Clear,300,2014-01-27 20:15:00
2:35 PM,7.2,-13.4,39,30.40,10.0,NW,15.0,-,N/A,,Clear,310,2014-01-27 20:35:00
2:55 PM,7.7,-13.4,38,30.41,10.0,NW,12.7,18.4,N/A,,Clear,320,2014-01-27 20:55:00
3:15 PM,7.0,-14.4,37,30.41,10.0,NNW,12.7,18.4,N/A,,Clear,330,2014-01-27 21:15:00
3:35 PM,7.3,-13.7,38,30.41,10.0,WNW,11.5,-,N/A,,Clear,300,2014-01-27 21:35:00
3:55 PM,7.2,-13.7,38,30.42,10.0,NW,10.4,17.3,N/A,,Clear,310,2014-01-27 21:55:00
4:15 PM,6.8,-13.7,39,30.42,10.0,NW,6.9,19.6,N/A,,Clear,320,2014-01-27 22:15:00
4:35 PM,6.4,-13.5,40,30.43,10.0,NW,11.5,-,N/A,,Clear,320,2014-01-27 22:35:00
4:55 PM,5.7,-13.4,41,30.43,10.0,WNW,8.1,-,N/A,,Clear,300,2014-01-27 22:55:00
5:15 PM,4.8,-13.0,44,30.43,10.0,NW,8.1,-,N/A,,Clear,310,2014-01-27 23:15:00
5:35 PM,3.7,-13.2,45,30.43,10.0,NNW,9.2,-,N/A,,Clear,330,2014-01-27 23:35:00
5:55 PM,2.3,-13.0,49,30.43,10.0,NW,4.6,-,N/A,,Clear,320,2014-01-27 23:55:00
6:15 PM,1.9,-13.0,50,30.44,10.0,NNW,4.6,-,N/A,,Clear,330,2014-01-28 00:15:00
6:35 PM,0.3,-12.3,55,30.44,10.0,NNW,5.8,-,N/A,,Clear,330,2014-01-28 00:35:00
6:55 PM,0.3,-11.9,56,30.45,10.0,NW,4.6,-,N/A,,Clear,320,2014-01-28 00:55:00
7:15 PM,0.1,-12.3,56,30.45,10.0,NW,3.5,-,N/A,,Clear,320,2014-01-28 01:15:00
7:35 PM,0.1,-12.5,55,30.45,10.0,Calm,Calm,-,N/A,,Clear,0,2014-01-28 01:35:00
7:55 PM,-1.8,-12.5,61,30.45,10.0,WSW,3.5,-,N/A,,Clear,250,2014-01-28 01:55:00
8:15 PM,-2.7,-12.3,64,30.45,10.0,Calm,Calm,-,N/A,,Clear,0,2014-01-28 02:15:00
8:35 PM,-1.7,-12.1,61,30.46,10.0,Calm,Calm,-,N/A,,Clear,0,2014-01-28 02:35:00
8:55 PM,-1.8,-12.6,60,30.46,10.0,WSW,3.5,-,N/A,,Clear,250,2014-01-28 02:55:00
9:15 PM,-1.7,-12.8,59,30.46,10.0,WSW,4.6,-,N/A,,Clear,250,2014-01-28 03:15:00
9:35 PM,-1.8,-12.3,61,30.47,10.0,West,4.6,-,N/A,,Clear,260,2014-01-28 03:35:00
9:55 PM,-2.4,-12.3,63,30.47,10.0,West,4.6,-,N/A,,Clear,280,2014-01-28 03:55:00
10:15 PM,-3.6,-12.1,67,30.46,10.0,West,4.6,-,N/A,,Clear,270,2014-01-28 04:15:00
10:35 PM,-3.3,-11.7,67,30.45,10.0,WNW,4.6,-,N/A,,Clear,290,2014-01-28 04:35:00
10:55 PM,-3.6,-11.7,68,30.45,10.0,West,4.6,-,N/A,,Clear,280,2014-01-28 04:55:00
11:15 PM,-4.2,-12.1,69,30.46,10.0,WSW,4.6,-,N/A,,Clear,240,2014-01-28 05:15:00
11:35 PM,-3.3,-11.2,69,30.45,10.0,WSW,4.6,-,N/A,,Clear,240,2014-01-28 05:35:00
11:55 PM,-3.6,-11.9,68,30.45,10.0,West,4.6,-,N/A,,Clear,270,2014-01-28 05:55:00